Barrow, AK

8:32 PM AKDT on June 17, 2018 (GMT -0800)
Wiley Post-Will Rogers Memorial

Weather History for PABR - November, 2017

Change the Weather History Date:

Thursday, November 23, 2017

  Actual Average Record
Temperature  
Mean Temperature 20 °F -2 °F  
Max Temperature 25 °F 3 °F 29 °F (1952)
Min Temperature 15 °F -8 °F -38 °F (1992)
Degree Days  
Heating Degree Days 45 67  
Month to date heating degree days 925 1448  
Since 1 July heating degree days 4425 5471  
Cooling Degree Days 0 0  
Month to date cooling degree days 0 0  
Year to date cooling degree days 0 0  
Moisture  
Dew Point 19 °F    
Average Humidity 91    
Maximum Humidity 96    
Minimum Humidity 84    
Precipitation  
Precipitation T in 0.01 in 0.08 in (1951)
Month to date precipitation 0.94 0.17  
Year to date precipitation 7.98 4.35  
Sea Level Pressure  
Sea Level Pressure 29.27 in    
Wind  
Wind Speed 14 mph (SE)    
Max Wind Speed 18 mph    
Max Gust Speed -    
Visibility 9 miles    
Events Snow    
T = Trace of Precipitation, MM = Missing Value Source: NWS Daily Summary

Daily Weather History Graph

Daily Weather History Graph

Search for Another Location

Airport or City:

Astronomy

Nov. 23, 2017 Rise Set
Actual Time 12:41 PM AKST 1:46 PM AKST
Civil Twilight 10:30 AM AKST 3:56 PM AKST
Nautical Twilight 8:50 AM AKST 5:35 PM AKST
Astronomical Twilight 7:30 AM AKST 6:55 PM AKST
Moon 4:48 PM AKST (11/23) 6:28 PM AKST (11/23)
Length of Visible Light 5h 26m
Length of Day
1h 04m
Waxing Crescent, 24% of the Moon is Illuminated
Nov 23
Waxing Crescent
Nov 26
First Quarter
Dec 3
Full
Dec 9
Last Quarter
Dec 17
New

Hourly Weather History & Observations

Time (AKST) Temp. Windchill Dew Point Humidity Pressure Visibility Wind Dir Wind Speed Gust Speed Precip Events Conditions
12:53 AM 25.0 °F 13.6 °F 23.0 °F 92% 29.24 in 9.0 mi South 12.7 mph - 0.00 in   Overcast
1:29 AM 25.0 °F 13.1 °F 23.0 °F 92% 29.24 in 5.0 mi SW 13.8 mph - 0.00 in Snow Light Snow
1:53 AM 25.0 °F 12.6 °F 23.0 °F 92% 29.25 in 10.0 mi SW 15.0 mph - 0.00 in   Overcast
2:53 AM 19.9 °F 7.9 °F 18.0 °F 92% 29.25 in 10.0 mi South 11.5 mph - N/A   Overcast
3:53 AM 19.0 °F 6.1 °F 16.0 °F 88% 29.24 in 10.0 mi South 12.7 mph - N/A   Overcast
4:53 AM 15.1 °F 2.5 °F 12.0 °F 88% 29.24 in 10.0 mi SSE 10.4 mph - N/A   Overcast
5:22 AM 16.0 °F 1.7 °F 14.0 °F 92% 29.23 in 10.0 mi SSE 13.8 mph - N/A   Overcast
5:34 AM 17.1 °F 3.6 °F 14.0 °F 88% 29.23 in 10.0 mi SSE 12.7 mph - N/A   Overcast
5:44 AM 17.1 °F 3.6 °F 15.1 °F 92% 29.23 in 9.0 mi SSE 12.7 mph - N/A   Overcast
5:53 AM 18.0 °F 4.8 °F 16.0 °F 92% 29.24 in 5.0 mi SSE 12.7 mph - N/A   Overcast
6:28 AM 19.9 °F 7.3 °F 17.1 °F 89% 29.23 in 10.0 mi SSE 12.7 mph - 0.00 in   Overcast
6:42 AM 19.9 °F 7.9 °F 18.0 °F 92% 29.24 in 10.0 mi SSE 11.5 mph - 0.00 in   Overcast
6:53 AM 19.9 °F 7.3 °F 17.1 °F 89% 29.24 in 10.0 mi SSE 12.7 mph - 0.00 in   Overcast
7:45 AM 19.9 °F 6.7 °F 18.0 °F 92% 29.23 in 10.0 mi SSE 13.8 mph - N/A   Overcast
7:53 AM 19.9 °F 6.2 °F 18.0 °F 92% 29.24 in 10.0 mi South 15.0 mph - N/A   Overcast
8:17 AM 21.0 °F 7.6 °F 19.9 °F 96% 29.23 in 2.0 mi South 15.0 mph - 0.00 in Snow Light Snow
8:26 AM 21.0 °F 7.1 °F 19.0 °F 92% 29.23 in 8.0 mi South 16.1 mph - 0.00 in   Overcast
8:53 AM 21.0 °F 8.1 °F 19.0 °F 92% 29.24 in 10.0 mi South 13.8 mph - 0.00 in   Overcast
9:20 AM 21.0 °F 8.1 °F 19.0 °F 92% 29.23 in 9.0 mi South 13.8 mph - 0.00 in   Overcast
9:33 AM 21.0 °F 7.6 °F 19.0 °F 92% 29.23 in 10.0 mi South 15.0 mph - 0.00 in   Overcast
9:43 AM 21.0 °F 7.6 °F 19.9 °F 96% 29.23 in 8.0 mi South 15.0 mph - 0.00 in   Overcast
9:51 AM 21.2 °F 8.3 °F 19.4 °F 93% 29.23 in 4.0 mi South 13.8 mph - 0.00 in Snow Light Snow
9:53 AM 21.9 °F 9.2 °F 19.9 °F 92% 29.24 in 4.0 mi South 13.8 mph - 0.00 in Snow Light Snow
10:07 AM 21.0 °F 8.6 °F 19.0 °F 92% 29.23 in 7.0 mi South 12.7 mph - 0.00 in   Overcast
10:27 AM 21.9 °F 9.2 °F 19.9 °F 92% 29.23 in 5.0 mi South 13.8 mph - 0.00 in   Overcast
10:53 AM 21.0 °F 8.1 °F 19.9 °F 96% 29.24 in 7.0 mi South 13.8 mph - 0.00 in   Overcast
11:53 AM 23.0 °F 10.6 °F 21.0 °F 92% 29.25 in 10.0 mi South 13.8 mph - N/A   Overcast
12:04 PM 23.0 °F 10.1 °F 21.0 °F 92% 29.24 in 10.0 mi South 15.0 mph - N/A   Overcast
12:32 PM 23.0 °F 10.6 °F 21.0 °F 92% 29.25 in 7.0 mi South 13.8 mph - N/A   Overcast
12:51 PM 23.0 °F 9.6 °F 21.2 °F 93% 29.24 in 8.0 mi South 16.1 mph - N/A   Overcast
12:53 PM 23.0 °F 10.1 °F 21.0 °F 92% 29.25 in 8.0 mi South 15.0 mph - N/A   Overcast
1:50 PM 21.2 °F 8.3 °F 19.4 °F 93% 29.25 in 10.0 mi SSE 13.8 mph - N/A   Overcast
1:53 PM 21.9 °F 9.2 °F 19.9 °F 92% 29.25 in 10.0 mi SSE 13.8 mph - N/A   Overcast
2:21 PM 21.9 °F 8.7 °F 19.9 °F 92% 29.25 in 10.0 mi SSE 15.0 mph - N/A   Overcast
2:53 PM 21.9 °F 8.2 °F 19.9 °F 92% 29.25 in 10.0 mi SE 16.1 mph - N/A   Overcast
3:53 PM 19.9 °F 6.2 °F 18.0 °F 92% 29.25 in 10.0 mi ESE 15.0 mph - N/A   Overcast
4:20 PM 19.0 °F 5.0 °F 17.1 °F 92% 29.24 in 10.0 mi East 15.0 mph - N/A   Overcast
4:32 PM 19.9 °F 6.2 °F 17.1 °F 89% 29.25 in 10.0 mi East 15.0 mph - N/A   Overcast
4:53 PM 19.9 °F 6.2 °F 18.0 °F 92% 29.26 in 10.0 mi East 15.0 mph - N/A   Overcast
5:53 PM 19.9 °F 5.2 °F 18.0 °F 92% 29.26 in 10.0 mi East 17.3 mph - N/A   Overcast
6:53 PM 18.0 °F 3.1 °F 15.1 °F 88% 29.29 in 10.0 mi ENE 16.1 mph - N/A   Overcast
7:29 PM 19.0 °F 4.5 °F 17.1 °F 92% 29.30 in 10.0 mi ENE 16.1 mph - N/A   Scattered Clouds
7:39 PM 21.0 °F 8.1 °F 18.0 °F 88% 29.31 in 10.0 mi ENE 13.8 mph - N/A   Mostly Cloudy
7:53 PM 21.9 °F 9.2 °F 19.9 °F 92% 29.32 in 10.0 mi ENE 13.8 mph - N/A   Overcast
8:11 PM 21.0 °F 8.1 °F 19.0 °F 92% 29.32 in 10.0 mi ENE 13.8 mph - N/A   Mostly Cloudy
8:53 PM 23.0 °F 8.7 °F 21.0 °F 92% 29.35 in 10.0 mi NE 18.4 mph - N/A   Overcast
9:53 PM 23.0 °F 10.1 °F 19.9 °F 88% 29.39 in 10.0 mi NE 15.0 mph - N/A   Overcast
10:01 PM 24.1 °F 11.0 °F 19.9 °F 84% 29.39 in 10.0 mi NE 16.1 mph - N/A   Overcast
10:33 PM 24.1 °F 10.6 °F 21.0 °F 88% 29.41 in 10.0 mi NE 17.3 mph - N/A   Overcast
10:53 PM 24.1 °F 11.0 °F 21.0 °F 88% 29.43 in 10.0 mi NE 16.1 mph - N/A   Overcast
11:14 PM 24.1 °F 11.5 °F 21.0 °F 88% 29.44 in 10.0 mi NE 15.0 mph - N/A   Overcast
11:50 PM 24.8 °F 11.9 °F 21.2 °F 86% 29.47 in 10.0 mi NE 16.1 mph - N/A   Overcast
11:53 PM 25.0 °F 12.2 °F 21.0 °F 85% 29.48 in 10.0 mi NE 16.1 mph - N/A   Overcast